Regional Weather Roundup
Issued by NWS

Current Version | Previous Version | Text Only | Print | Product List | Glossary On
Versions: 1 2 3 4 5 6 7 8 9 10 11 12 13 14 15 16 17 18 19 20 21 22 23 24 25 26 27 28 29 30 31 32 33 34 35 36 37 38 39 40 41 42 43 44 45 46 47 48 49
000
ASUS42 KTBW 261510
RWRFL
FLORIDA REGIONAL WEATHER ROUNDUP
NATIONAL WEATHER SERVICE TAMPA BAY RUSKIN FL
1000 AM EST FRI DEC 26 2014

NOTE: "FAIR" INDICATES FEW OR NO CLOUDS BELOW 12,000 FEET WITH NO
SIGNIFICANT WEATHER AND/OR OBSTRUCTIONS TO VISIBILITY.


FLZ001>010-012>015-112-114-115-261600-
PANHANDLE FLORIDA

CITY           SKY/WX    TMP DP  RH WIND       PRES   REMARKS
PENSACOLA      PTSUNNY   51  45  79 NE6       30.28R
MILTON NAS     MOSUNNY   51  42  71 E9        30.29R
CRESTVIEW      SUNNY     47  42  83 E5        30.32R WCI  45
DUKE FIELD     FAIR      51  40  66 VRB1      30.30R
VALPARAISO     SUNNY     51  41  67 E9        30.30R
MARY ESTHER    SUNNY     53  42  65 NE9       30.27R
PANAMA CITY    FAIR      50  41  71 E7        30.29R
TYNDALL AFB    SUNNY     51  49  95 E7        30.30R
APALACHICOLA   SUNNY     60  48  64 SE9       30.27R

STATION/POSITION SKY/WX   TEMP    WIND        PRES    WAVE   SWELL
                          AIR SEA DIR/SP/G            HT/PER HT/PER
                          (F)     (DEG/KT/KT) (MB)    (FT/S) (FT/S)
30.1N   87.6W              65 68  110/  8/ 10 1023.9R   3/ 4   2/ 4
29.2N   88.2W              65 73  130/ 12/ 14 1023.4R   2/ 4   2/ 8
28.7N   86.0W              66 74  110/ 10/ 12 1024.1R   2/ 4   2/ 7
PANAMA CITY BEAC           53 60   80/  5/  9 1025.3R
CAPE SAN BLAS    NOT AVBL
TOWER C                    58     110/ 13/ 14 1024.9R
28.5N   84.5W              63 71  100/ 12/ 16 1024.2R   2/ 8   2/ 8

$$
FLZ011-016>038-118-127-128-134-139-239-261600-
NORTH FLORIDA

CITY           SKY/WX    TMP DP  RH WIND       PRES   REMARKS
MARIANNA       SUNNY     49  45  86 NE6       30.30R
TALLAHASSEE    MOSUNNY   53  42  66 E7        30.30R
PERRY          SUNNY     51  43  73 NE5       30.31R
CROSS CITY       N/A     55  46  71 CALM      30.29R
LAKE CITY      FAIR      52  46  82 NE6       30.30R
GAINESVILLE    SUNNY     57  48  72 VRB3      30.29R
MAYPORT NAS    MOSUNNY   60  53  77 N7        30.29R
JACKSONVILLE   MOSUNNY   55  51  86 NE6       30.30R
JAX NAS        MOSUNNY   58  48  69 N6        30.30R
JAX CRAIG      SUNNY     59  51  75 N5        30.29R
JAX CECIL      SUNNY     54  48  82 NE5       30.30R
FERNANDINA BEA FAIR      61  54  77 N3        30.29R
ST AUGUSTINE   SUNNY     60  54  80 N6        30.29R

STATION/POSITION SKY/WX   TEMP    WIND        PRES    WAVE   SWELL
                          AIR SEA DIR/SP/G            HT/PER HT/PER
                          (F)     (DEG/KT/KT) (MB)    (FT/S) (FT/S)
SHELL POINT                48      40/  4/  9   N/A
KEATON BEACH               52      50/  7/  8 1025.8R
CEDAR KEY                  51      60/ 10/ 11 1025.4R
FERNANDINA                 55 60   10/  4/  8 1025.4S
30.7N   81.3W                 61                N/A     2/ 8
MAYPORT                    58 61   20/  6/  9   N/A
31.4N   80.9W              56 58   20/ 10/ 14 1026.4R   2/ 7   2/ 7
ST AUGUSTINE               58     350/  9/ 10 1025.9R

$$
FLZ040-043>046-052-053-057-058-063-144-261600-
INTERIOR CENTRAL FLORIDA

CITY           SKY/WX    TMP DP  RH WIND       PRES   REMARKS
OCALA          SUNNY     55  48  76 NE5       30.28R
THE VILLAGES     N/A     57  50  77 N5        30.18R
LEESBURG       CLOUDY    55  52  89 CALM      30.28R
SANFORD        CLOUDY    59  53  80 N5        30.26R
ORLANDO EXEC   CLOUDY    64  55  72 NE7       30.26R
ORLANDO INTL   MOSUNNY   65  56  72 N7        30.26R
KISSIMMEE      SUNNY     64  57  77 CALM      30.26R
WINTER HAVEN   SUNNY     64  54  69 NE6       30.27R
LAKELAND       SUNNY     63  54  72 NE9       30.26R
OKEECHOBEE     CLOUDY    68  59  73 N9        30.23S

$$
FLZ041-047-054-059-064-141-147-261600-
EAST CENTRAL FLORIDA

CITY           SKY/WX    TMP DP  RH WIND       PRES   REMARKS
ORMOND BEACH   SUNNY     63  55  77 CALM      30.27R
DAYTONA BEACH  MOSUNNY   60  54  80 VRB3      30.27R
DELAND         PTSUNNY  N/A N/A N/A CALM      30.27S
NEW SMYRNA BEA PTSUNNY   59  55  88 CALM      30.27R
JFK SPACE CTR  MOSUNNY   67  61  81 VRB2      30.25R
TITUSVILLE     MOSUNNY   66  59  77 CALM      30.25R
CAPE CANAVERAL CLOUDY    67  61  80 VRB2      30.24R
PATRICK AFB    CLOUDY    65  61  86 N5        30.24S
MELBOURNE      CLOUDY    66  59  78 CALM      30.24R
VERO BEACH     CLOUDY    67  60  78 N5        30.23S
FT PIERCE      CLOUDY    66  60  81 N3        30.23R
STUART         CLOUDY    68  63  83 NW7       30.23R

STATION/POSITION SKY/WX   TEMP    WIND        PRES    WAVE   SWELL
                          AIR SEA DIR/SP/G            HT/PER HT/PER
                          (F)     (DEG/KT/KT) (MB)    (FT/S) (FT/S)
28.5N   80.2W              71 75   80/  8/ 10 1023.9R
28.9N   78.5W              71 76   50/  6/  8 1024.4R   3/ 6   3/ 6
TRIDENT PIER               65 67  310/  3/  4 1023.7R
28.4N   80.5W                 66                N/A     2/ 8
27.6N   80.2W                 75                N/A     3/ 4   2/12

$$
FLZ050-056-061-142-242-148-248-149-249-151-251-155-255-
160-260-261600-
WEST CENTRAL FLORIDA

CITY           SKY/WX    TMP DP  RH WIND       PRES   REMARKS
CRYSTAL RIVER  FAIR      57  50  77 E7        30.27S
INVERNESS      FAIR      55  50  82 CALM      30.29R
BROOKSVILLE    CLOUDY    54  50  86 E8        30.28R
ZEPHYRHILLS    FAIR      63  55  77 E7        30.28R
CLEARWATER     PTSUNNY   62  54  74 E7        30.26R
TAMPA INTL     MOSUNNY   63  52  67 VRB5      30.27R
TAMPA EXEC     SUNNY     64  54  68 E5        30.27R
PLANT CITY     SUNNY     64  55  72 E6        30.28R
MACDILL AFB    SUNNY     62  57  82 NE10      30.26R
PETER O KNIGHT SUNNY     64  55  72 E7        30.26R
ST PETERSBURG  SUNNY     61  54  77 E10       30.25R
SARASOTA       MOSUNNY   64  54  69 E9        30.23R
VENICE         FAIR      64  54  68 E8        30.24S

STATION/POSITION SKY/WX   TEMP    WIND        PRES    WAVE   SWELL
                          AIR SEA DIR/SP/G            HT/PER HT/PER
                          (F)     (DEG/KT/KT) (MB)    (FT/S) (FT/S)
CEDAR KEY                  51      60/ 10/ 11 1025.4R
28.5N   84.5W              63 71  100/ 12/ 16 1024.2R   2/ 8   2/ 8
27.3N   84.3W                 75                N/A     3/ 4
CLEARWATER BEACH           62 65  100/  5/  8 1024.1R
MIDDLE TAMPA BAY           60      90/  7/  9 1024.6R
VENICE                     63 67   50/  7/  8 1023.5R

$$
FLZ066-069-070-075>078-162-262-165-265-261600-
SOUTHWEST FLORIDA AND KEYS

CITY           SKY/WX    TMP DP  RH WIND       PRES   REMARKS
PUNTA GORDA    CLOUDY    61  54  77 NE9       30.25R
FT MYERS       CLOUDY    66  54  65 NE7       30.22R
SOUTHWEST INTL PTSUNNY   66  55  67 NE8       30.22R
NAPLES         MOSUNNY   68  56  65 NE13      30.20S
MARCO ISLAND   CLOUDY    64  54  68 NE10      30.20S
MARATHON       PTSUNNY   73  69  87 NE9       30.18R
KEY WEST NAS   CLOUDY    71  66  84 NE12      30.18R
KEY WEST INTL  PTSUNNY   73  67  81 N14       30.18R

STATION/POSITION SKY/WX   TEMP    WIND        PRES    WAVE   SWELL
                          AIR SEA DIR/SP/G            HT/PER HT/PER
                          (F)     (DEG/KT/KT) (MB)    (FT/S) (FT/S)
VENICE                     63 67   50/  7/  8 1023.5R
NAPLES                     65 74   60/  9/ 14 1023.1S
26.0N   85.6W              72 74   90/ 16/ 17 1022.0R   4/ 5   2/ 8
DRY TORTUGAS               69      50/ 17/ 20 1021.6R
NW FL BAY                  69      50/ 14/ 15 1021.3R
SAND KEY                   70      30/ 14/ 16 1021.8R
SOMBRERO KEY               71      40/ 12/ 12 1022.3R
LONG KEY                   70 74   30/ 11/ 12 1022.2R
MOLASSES REEF              73 78  350/  6/  7 1021.8R

$$
FLZ067-068-071>074-168-172>174-261600-
SOUTHEAST FLORIDA

CITY           SKY/WX    TMP DP  RH WIND       PRES   REMARKS
W PALM BEACH   CLOUDY    70  63  78 N6        30.20R
FT LAUDER-EXEC CLOUDY    68  62  81 NW3       30.20R
FT LAUDERDALE  CLOUDY    67  65  93 NW5       30.19R
POMPANO BEACH  CLOUDY    70  63  78 N3        30.20R
PEMBROKE PINES CLOUDY    69  64  84 N5        30.21R
OPA LOCKA      CLOUDY    69  64  84 NW7       30.20R
MIAMI          CLOUDY    69  64  84 VRB3      30.20R
WEST KENDALL   LGT RAIN  68  64  87 N7        30.20S
HOMESTEAD      LGT RAIN  68  64  88 NW8       30.19R

STATION/POSITION SKY/WX   TEMP    WIND        PRES    WAVE   SWELL
                          AIR SEA DIR/SP/G            HT/PER HT/PER
                          (F)     (DEG/KT/KT) (MB)    (FT/S) (FT/S)
PORT EVERGLADES            68     310/  5/  8 1022.4
VIRGINIA KEY               70 74  340/  6/ 10 1022.6R
LAKE WORTH                 72 77   50/ 11/ 13 1022.6S
SETTLEMENT POINT           72      80/ 16/ 17 1023.4R

$$



USA.gov is the U.S. government's official web portal to all federal, state and local government web resources and services.